Regional Weather Roundup
Issued by NWS Northern Indiana

Home | Current Version | Previous Version | Graphics & Text | Print | Product List | Glossary On
Versions: 1 2 3 4 5 6 7 8 9 10 11 12 13 14 15 16 17 18 19 20 21 22 23 24 25 26 27 28 29 30 31 32 33 34 35 36 37 38 39 40 41 42 43 44 45 46 47 48 49 50
000
ASUS43 KIWX 190500
RWRIWX

KIWX WEATHER ROUNDUP
NATIONAL WEATHER SERVICE NORTHERN INDIANA
1200 AM EST SUN FEB 19 2017

NOTE: "FAIR" INDICATES FEW OR NO CLOUDS BELOW 12,000 FEET WITH NO
SIGNIFICANT WEATHER AND/OR OBSTRUCTIONS TO VISIBILITY.

* THESE STATIONS ARE NOT UNDER NWS QUALITY CONTROL. THEY ALSO MAY NOT
  REPORT WEATHER SUCH AS PRECIPITATION OR FOG.

INZ001>027-190600-
NORTHERN INDIANA

CITY           SKY/WX    TMP DP  RH WIND       PRES   REMARKS
GARY*          CLEAR     36  33  88 CALM      29.84R
SOUTH BEND     CLEAR     36  31  82 CALM      29.83R
GOSHEN         CLEAR     40  35  83 S5        29.82R
WARSAW*        CLEAR     45  37  76 SW3       29.83R
ANGOLA*        CLEAR     37  37 100 CALM      29.81R
FORT WAYNE     CLEAR     45  38  76 SW10      29.83S

$$
INZ028>050-190600-
CENTRAL INDIANA

CITY           SKY/WX    TMP DP  RH WIND       PRES   REMARKS
LAFAYETTE      CLEAR     48  45  89 SW9       29.87R
KOKOMO*        CLEAR     47  43  86 SW10      29.87R
MUNCIE*        CLEAR     50  42  74 SW7       29.88R
INDIANAPOLIS   PTCLDY    48  44  86 SW9       29.91R

$$
MIZ043>046-050>051-056>058-064>065-071>073-077>080-190600-
SOUTHWEST LOWER MICHIGAN

CITY           SKY/WX    TMP DP  RH WIND       PRES   REMARKS
BATTLE CREEK   CLEAR     43  35  73 CALM      29.81R
BENTON HARBOR  CLEAR     36  31  82 CALM      29.82R
COLDWATER*     CLEAR     38  34  84 SW3       29.81S
HILLSDALE*     CLEAR     41  34  75 W5        29.80R
HOLLAND        CLEAR     36  31  82 W6        29.82R
GRAND RAPIDS   CLEAR     35  30  82 SW5       29.81R WCI  31
KALAMAZOO      CLEAR     36  30  79 S3        29.82R
STURGIS*       CLEAR     40  36  84 CALM      29.81S
THREE RIVERS*  FAIR      34  31  89 CALM      29.82S

$$
OHZ001>008-015>018-024>025-190600-
NORTHWEST OHIO

CITY           SKY/WX    TMP DP  RH WIND       PRES   REMARKS
DEFIANCE       CLEAR     47  39  74 SW5       29.82R
FINDLAY        CLEAR     48  39  71 SW10      29.82R
TOLEDO EXPRESS CLEAR     45  40  82 W9        29.79S
TOLEDO METCALF CLEAR     45  40  82 SW8       29.80S
LIMA           CLEAR     48  41  76 SW9       29.84R

$$
AND FOR LAKE MICHIGAN COASTAL AND OPEN LAKE BUOY OBSERVATIONS

STATION/POSITION TEMP    WIND        PRES    VSBY  WAVE
                 AIR SEA DIR/SP/G                  HT/PER
                 (F)     (DEG/KT/KT) (MB)    (MI)  (FT/S)
CALUMET HARBOR    45     250/  3/  3 1009.6R
MICHIGAN CITY     52     130/  5/  5   N/A
BURNS HARBOR      41     250/  5/  6 1010.5R

$$
&&




USA.gov is the U.S. government's official web portal to all federal, state and local government web resources and services.